[[{"header":{"parameterUnit":"m.s-1","parameterCategory":1,"la1":30.2991,"la2":30.254,"lo1":-89.0895,"lo2":-89.0444,"dy":0.0017,"dx":0.0017,"nx":28,"ny":28,"refTime":"2024-06-24T21:00:00:Z","depth":0,"parameterNumber":2,"parameterNumberName":"U-component_of_WINDS"},"data":[0,0,0,0,0,0,0,0,0,0,0,0,0,0,0,0,0,0,0,0,0,0,0,0,0,0,0,0,0,0,0,0,0,0,0,0,0,0,0,0,0,0,0,0,0,0,0,0,0,0,0,0,0,0,0,0,0,0,4.7692,4.7692,0,4.7735,4.7735,4.7736,4.7632,4.7629,4.7626,4.7622,4.7675,4.768,4.7684,0,0,0,0,0,0,0,0,0,0,0,0,0,4.7529,4.7532,4.7692,4.7692,4.7693,4.7735,4.7735,4.7736,4.7633,4.7629,4.7625,4.7621,4.7674,4.7679,4.7685,0,0,0,0,0,0,0,0,0,0,0,0,0,4.7589,4.7533,4.7691,4.7646,4.7642,4.7735,4.7735,4.7736,4.7634,4.7629,4.7624,4.7619,4.7672,4.7679,4.7685,4.7826,0,0,4.7706,4.7709,0,0,0,0,0,0,0,0,4.7586,4.7595,4.7652,4.7649,4.7645,4.7673,4.7697,4.7767,4.7635,4.7637,4.7622,4.7617,4.7679,4.7685,4.7704,4.7829,4.7831,4.7707,4.7711,4.7714,4.7715,0,0,0,0,0,0,0,4.7581,4.7593,4.7709,4.7653,4.7649,4.7627,4.763,4.771,4.7686,4.7637,4.7629,4.7635,4.7676,4.7698,4.7705,4.7832,4.7706,4.7712,4.7717,4.7719,4.8079,4.8084,0,0,0,0,0,0,4.7582,4.759,4.7707,4.771,4.7602,4.7634,4.7637,4.7669,4.7685,4.7682,4.764,4.763,4.7689,4.7697,4.7706,4.7874,4.7713,4.772,4.7724,4.8073,4.808,4.8086,0,0,0,0,0,0,4.7579,4.7593,4.7706,4.7648,4.766,4.7641,4.7679,4.7673,4.7694,4.7687,4.7683,4.7665,4.7685,4.7697,4.7798,4.7875,4.7723,4.7729,4.8067,4.8075,4.8083,4.8211,0,0,0,0,0,0,4.7575,4.7593,4.7644,4.765,4.7664,4.7794,4.7683,4.7677,4.7705,4.7693,4.771,4.7708,4.7682,4.7788,4.7804,4.7881,4.7734,4.806,4.807,4.808,4.82,4.8223,4.8242,0,0,0,0,0,4.7569,4.7679,4.7647,4.7662,4.7727,4.7798,4.7807,4.7772,4.7712,4.7764,4.776,4.7707,4.7864,4.7799,4.7817,4.7897,4.8055,4.8067,4.8079,4.819,4.8218,4.8242,0,0,0,0,0,0,4.7685,4.7679,4.7643,4.7758,4.7779,4.778,4.7845,4.7803,4.7843,4.7831,4.779,4.7795,4.7904,4.7911,4.7839,4.8036,4.7949,4.7966,4.8028,4.8054,4.8075,4.8072,4.774,0,0,0,0,0,4.7723,4.7779,4.7772,4.7874,4.7886,4.7865,4.7895,4.7866,4.7888,4.7897,4.79,4.7926,4.798,4.8018,4.8067,4.82,4.8204,4.8265,4.8286,4.8303,4.8318,4.8392,4.842,4.8126,4.8126,4.8126,0,0,4.7804,4.7808,4.7846,4.7898,4.7911,4.7973,4.7873,4.7942,4.7989,4.7908,4.8003,4.8007,4.8033,4.8151,4.8203,4.816,4.84,4.8319,4.8333,4.8339,4.8408,4.8436,4.8461,4.8135,4.8133,4.8132,0,0,4.7983,4.799,4.8077,4.8092,4.8113,4.8098,4.812,4.8128,4.8127,4.8221,4.8163,4.822,4.8314,4.8336,4.8359,4.855,4.8505,4.8568,4.8679,4.8752,4.8775,4.8795,4.8866,4.8891,4.8583,4.8583,4.8584,0,4.8081,4.8169,4.8128,4.8201,4.8228,4.8156,4.8246,4.8264,4.8302,4.8323,4.8273,4.8392,4.8404,4.8528,4.8575,4.8595,4.8621,4.8566,4.8774,4.8794,4.8813,4.888,4.8906,4.8591,4.859,4.8589,4.8589,0,4.829,4.8353,4.8421,4.8457,4.8491,4.8573,4.8547,4.8587,4.8558,4.8549,4.8649,4.8661,4.8713,4.8741,4.8713,4.8862,4.8834,4.878,4.8692,4.8849,4.8911,4.8936,4.8602,4.8599,4.8597,4.8595,0,0,4.8542,4.8555,4.8581,4.8598,4.8617,4.8666,4.8747,4.8796,4.8832,4.8862,4.893,4.9013,4.8964,4.8991,4.8965,4.9028,4.9182,4.8967,4.8967,4.9008,4.9351,4.9392,4.9422,4.9152,4.9156,4.916,4.9349,0,4.872,4.8854,4.8822,4.8957,4.9016,4.8951,4.9021,4.9043,4.9038,4.909,4.9086,4.9146,4.9075,4.9092,4.9151,4.915,4.9251,4.9136,4.9218,4.9222,4.9214,4.9454,4.9498,4.9676,4.9373,4.9377,4.938,0,4.8945,4.8982,4.9122,4.9134,4.9158,4.9221,4.9266,4.9315,4.934,4.9332,4.9364,4.9326,4.941,4.932,4.9437,4.936,4.9392,4.9397,4.9403,4.9411,4.9311,4.947,4.9731,4.9759,4.9418,4.9415,4.9412,0,4.9117,4.9202,4.9297,4.9314,4.9329,4.9376,4.9386,4.9405,4.9438,4.9478,4.9499,4.9549,4.9577,4.9618,4.9597,4.9533,4.9719,4.9627,4.9718,4.9719,4.976,4.9758,5.0032,4.9779,4.9778,4.9778,4.9777,0,4.932,4.9409,4.9375,4.9434,4.9534,4.9497,4.9597,4.9599,4.9618,4.9679,4.9626,4.9685,4.9652,4.971,4.9695,4.9795,4.9808,4.9807,4.9802,4.9812,4.9813,4.9833,4.9821,4.9785,4.9783,4.9782,4.9781,0,4.9529,4.9509,4.9609,4.9616,4.9621,4.9694,4.9701,4.9759,4.975,4.9829,4.9845,4.9834,4.9899,4.9881,4.9953,4.9943,5.007,5.0049,5.0061,5.0057,5.0149,5.0141,5.0447,5.0486,5.0207,5.0209,5.0212,0,4.966,4.9727,4.9742,4.9778,4.979,4.9849,4.9882,4.985,4.9887,4.9922,4.9976,5.0036,5.0083,5.0191,5.0192,5.0247,5.0228,5.0331,5.0236,5.0245,5.0232,5.0229,5.0236,5.0351,5.0354,5.0356,5.0358,0,4.9896,4.9883,4.9932,4.9978,5.0019,5.0054,5.0085,5.0119,5.0089,5.0134,5.0199,5.0236,5.0309,5.0371,5.0422,5.0435,5.0394,5.0388,5.0413,5.0425,5.043,5.043,5.0115,5.0382,5.0379,5.0378,5.0376,5.0376,5.0071,5.0129,5.0149,5.0205,5.0225,5.0256,5.031,5.0309,5.0362,5.0417,5.0396,5.0472,5.0499,5.0563,5.0583,5.0644,5.0605,5.064,5.0649,5.0658,5.0671,5.0419,5.0653,5.0652,5.0652,5.0651,5.0651,0,5.0306,5.0316,5.0368,5.0413,5.0459,5.0413,5.0446,5.0488,5.0555,5.0582,5.0629,5.0706,5.0766,5.0772,5.083,5.0878,5.0861,5.0895,5.0891,5.0896,5.0701,5.0675,5.0908,5.0908,5.0908,5.0908,5.0907,5.0907,5.0433,5.0529,5.052,5.0627,5.0636,5.0709,5.0732,5.0761,5.0783,5.087,5.092,5.0922,5.0942,5.1001,5.1056,5.1056,5.1081,5.1123,5.1116,5.0934,5.0909,5.0885,5.086,5.1128,5.1128,5.1306,5.1307,5.1309]},{"header":{"parameterUnit":"m.s-1","parameterCategory":1,"la1":30.2991,"la2":30.254,"lo1":-89.0895,"lo2":-89.0444,"dy":0.0017,"dx":0.0017,"nx":28,"ny":28,"refTime":"2024-06-24T21:00:00:Z","depth":0,"parameterNumber":3,"parameterNumberName":"V-component_of_WINDS"},"data":[0,0,0,0,0,0,0,0,0,0,0,0,0,0,0,0,0,0,0,0,0,0,0,0,0,0,0,0,0,0,0,0,0,0,0,0,0,0,0,0,0,0,0,0,0,0,0,0,0,0,0,0,0,0,0,0,0,0,1.6941,1.6942,0,1.6978,1.6978,1.6979,1.6972,1.6972,1.6971,1.6971,1.7004,1.7006,1.7007,0,0,0,0,0,0,0,0,0,0,0,0,0,1.6862,1.6864,1.6941,1.6942,1.6942,1.6978,1.6978,1.6979,1.6973,1.6972,1.6971,1.697,1.7004,1.7005,1.7007,0,0,0,0,0,0,0,0,0,0,0,0,0,1.6897,1.6864,1.6941,1.6944,1.6944,1.6978,1.6978,1.6979,1.6973,1.6972,1.6971,1.697,1.7003,1.7005,1.7007,1.704,0,0,1.7014,1.7015,0,0,0,0,0,0,0,0,1.6895,1.69,1.6943,1.6943,1.6944,1.697,1.6963,1.6999,1.6973,1.6962,1.6971,1.697,1.6993,1.6996,1.7005,1.7041,1.7043,1.7014,1.7016,1.7017,1.7017,0,0,0,0,0,0,0,1.6893,1.6899,1.6956,1.6943,1.6944,1.6941,1.6945,1.697,1.6982,1.6963,1.6962,1.6967,1.6993,1.7003,1.7006,1.7043,1.7014,1.7016,1.7018,1.7019,1.7107,1.7108,0,0,0,0,0,0,1.6891,1.6897,1.6954,1.6957,1.6917,1.6944,1.6948,1.6962,1.6982,1.6984,1.6968,1.6966,1.7,1.7003,1.7007,1.7045,1.7017,1.7019,1.702,1.7106,1.7107,1.7108,0,0,0,0,0,0,1.6889,1.6896,1.6953,1.6927,1.6934,1.6946,1.6962,1.6964,1.6973,1.6986,1.6988,1.6975,1.6999,1.7004,1.7032,1.7046,1.702,1.7022,1.7104,1.7106,1.7107,1.7122,0,0,0,0,0,0,1.6887,1.6895,1.6909,1.6927,1.6935,1.6978,1.6963,1.6965,1.6977,1.6976,1.6993,1.6995,1.6999,1.7028,1.7034,1.7049,1.7024,1.7103,1.7105,1.7107,1.712,1.7124,1.7127,0,0,0,0,0,1.6884,1.6911,1.6909,1.6916,1.6952,1.6979,1.6984,1.6988,1.6979,1.6991,1.6999,1.6995,1.7044,1.7031,1.7037,1.7053,1.7102,1.7105,1.7107,1.7119,1.7123,1.7127,0,0,0,0,0,0,1.6892,1.6913,1.6912,1.6946,1.6961,1.6978,1.6994,1.6993,1.701,1.7008,1.7011,1.7015,1.7043,1.7051,1.7037,1.7085,1.7072,1.7075,1.7079,1.7083,1.7086,1.7083,1.7025,0,0,0,0,0,1.6898,1.692,1.6936,1.6964,1.6972,1.6982,1.6994,1.6996,1.7011,1.7017,1.7027,1.7041,1.706,1.7072,1.709,1.7122,1.7125,1.7136,1.7139,1.7142,1.7144,1.716,1.7165,1.7115,1.7115,1.7115,0,0,1.691,1.6924,1.6937,1.6966,1.6978,1.6999,1.6987,1.701,1.7025,1.702,1.7047,1.7055,1.7071,1.7101,1.7114,1.7108,1.7159,1.7144,1.7146,1.7148,1.7163,1.7168,1.7172,1.7117,1.7117,1.7116,0,0,1.6943,1.6956,1.6981,1.6993,1.7012,1.7019,1.7024,1.7042,1.7047,1.7075,1.7072,1.7089,1.7121,1.7132,1.7142,1.7179,1.7175,1.7184,1.7201,1.7217,1.7221,1.7224,1.7236,1.7241,1.7187,1.7187,1.7187,0,1.6955,1.6987,1.6993,1.7016,1.7028,1.7027,1.7051,1.7062,1.7085,1.7093,1.7086,1.7126,1.7136,1.7168,1.7177,1.7186,1.7191,1.7182,1.722,1.7224,1.7227,1.7238,1.7243,1.7188,1.7188,1.7188,1.7188,0,1.7001,1.7023,1.7041,1.7064,1.7078,1.7102,1.711,1.7123,1.7124,1.7131,1.7158,1.7171,1.7191,1.7199,1.7199,1.723,1.7226,1.722,1.7206,1.7233,1.7243,1.7248,1.719,1.7189,1.7189,1.7189,0,0,1.7039,1.7066,1.7072,1.7082,1.7103,1.7119,1.7142,1.7163,1.7174,1.719,1.7208,1.7235,1.7229,1.7241,1.7242,1.7257,1.7283,1.7248,1.7249,1.7253,1.7317,1.732,1.7326,1.7281,1.7282,1.7283,1.7315,0,1.7072,1.7114,1.712,1.7156,1.7176,1.7174,1.7194,1.7208,1.7215,1.7231,1.7239,1.7257,1.7249,1.7256,1.727,1.7277,1.7296,1.7275,1.7296,1.7297,1.7292,1.7331,1.7335,1.7365,1.7319,1.732,1.7321,0,1.7117,1.7135,1.7173,1.7191,1.7199,1.7217,1.7236,1.7253,1.7268,1.7272,1.7285,1.7285,1.7307,1.7293,1.7323,1.7309,1.7318,1.7323,1.7324,1.7325,1.731,1.7332,1.7375,1.7379,1.7327,1.7327,1.7326,0,1.7139,1.7173,1.72,1.7209,1.7231,1.7243,1.7252,1.7267,1.7279,1.7295,1.7302,1.7321,1.733,1.7344,1.7348,1.7339,1.7377,1.7365,1.738,1.738,1.7387,1.7386,1.7431,1.7395,1.7395,1.7395,1.7395,0,1.7175,1.7198,1.7211,1.7227,1.7253,1.7259,1.7283,1.7292,1.7305,1.7322,1.7322,1.7338,1.7343,1.736,1.7363,1.7386,1.7391,1.7394,1.7394,1.7393,1.7393,1.7398,1.7396,1.7396,1.7396,1.7396,1.7395,0,1.7204,1.7213,1.7243,1.7261,1.7266,1.7284,1.7299,1.7314,1.7321,1.7342,1.7348,1.7358,1.7377,1.7384,1.7406,1.7409,1.7435,1.7435,1.743,1.743,1.7445,1.7443,1.7493,1.75,1.7461,1.7461,1.7462,0,1.7225,1.7243,1.7264,1.7276,1.7286,1.7305,1.7318,1.7324,1.7337,1.7356,1.7368,1.7388,1.7403,1.7434,1.7443,1.746,1.7459,1.7475,1.7461,1.7459,1.7457,1.7456,1.7457,1.7477,1.7478,1.7478,1.7478,0,1.7263,1.7267,1.7285,1.7305,1.7321,1.7336,1.7352,1.7361,1.737,1.7384,1.7404,1.7416,1.744,1.7459,1.7476,1.7484,1.7482,1.7483,1.7487,1.7486,1.7482,1.7483,1.7436,1.7481,1.7481,1.7481,1.7481,1.7481,1.7288,1.7303,1.732,1.7341,1.7353,1.7367,1.7383,1.7392,1.7409,1.743,1.7433,1.7454,1.7468,1.7492,1.7501,1.7516,1.7512,1.7518,1.7519,1.7521,1.7521,1.7481,1.752,1.752,1.752,1.752,1.752,0,1.7324,1.7335,1.7354,1.7376,1.7391,1.739,1.7407,1.7419,1.7439,1.7453,1.7469,1.7491,1.751,1.752,1.7538,1.7548,1.7548,1.7553,1.7551,1.7553,1.7525,1.7519,1.7553,1.7553,1.7553,1.7553,1.7553,1.7553,1.7344,1.737,1.7376,1.7408,1.7419,1.7441,1.745,1.7463,1.7474,1.75,1.7515,1.7523,1.7535,1.7553,1.7569,1.7572,1.7578,1.7583,1.7585,1.7558,1.7555,1.7552,1.7546,1.7585,1.7585,1.7611,1.7611,1.7612]}]]